timestamp,wind_dir_avg,wind_spd_avg,wind_spd_max_dir,wind_spd_gust,battery_voltage,lat,long
2022-01-25 00:04:01+00:00,315.0,0.01,170.0,0.0,12.33,47.59359,-54.27349
2022-01-25 00:14:01+00:00,315.0,0.01,170.0,0.0,12.25,47.59359,-54.27349
2022-01-25 00:24:01+00:00,315.0,0.01,170.0,0.0,12.25,47.59359,-54.27349
2022-01-25 00:34:01+00:00,315.0,0.01,170.0,0.0,12.25,47.59359,-54.27349
2022-01-25 00:44:01+00:00,315.0,0.01,170.0,0.0,12.25,47.59359,-54.27349
2022-01-25 00:54:01+00:00,315.0,0.01,170.0,0.0,12.25,47.59359,-54.27349
2022-01-25 01:04:01+00:00,315.0,0.01,170.0,0.0,12.25,47.59359,-54.27349
2022-01-25 01:14:01+00:00,315.0,0.01,170.0,0.0,12.25,47.59359,-54.27349
2022-01-25 01:24:01+00:00,315.0,0.01,170.0,0.0,12.25,47.59359,-54.27349
2022-01-25 01:34:01+00:00,60.0,4.81,68.0,6.84,12.25,47.59359,-54.27349
2022-01-25 01:44:01+00:00,52.0,4.95,45.0,5.5,12.25,47.59359,-54.27349
2022-01-25 01:54:01+00:00,54.0,6.29,64.0,9.43,12.25,47.59359,-54.27349
2022-01-25 02:04:01+00:00,54.0,6.27,64.0,9.26,12.25,47.59359,-54.27349
2022-01-25 02:14:01+00:00,48.0,5.22,63.0,6.72,12.25,47.59359,-54.27349
2022-01-25 02:24:01+00:00,54.0,5.33,60.0,6.39,12.25,47.59359,-54.27349
2022-01-25 02:34:01+00:00,59.0,5.06,68.0,6.84,12.25,47.59359,-54.27349
2022-01-25 02:44:01+00:00,61.0,4.66,68.0,5.75,12.25,47.59359,-54.27349
2022-01-25 02:54:01+00:00,58.0,4.48,67.0,5.46,12.25,47.59359,-54.27349
2022-01-25 03:04:01+00:00,48.0,4.59,46.0,5.18,12.25,47.59359,-54.27349
2022-01-25 03:14:00+00:00,41.0,4.53,45.0,5.31,12.25,47.59359,-54.27349
2022-01-25 03:24:00+00:00,48.0,5.7,60.0,7.82,12.25,47.59359,-54.27349
2022-01-25 03:34:00+00:00,40.0,6.13,49.0,7.41,12.25,47.59359,-54.27349
2022-01-25 03:44:00+00:00,32.0,5.91,34.0,6.82,12.25,47.59359,-54.27349
2022-01-25 03:54:00+00:00,45.0,6.95,56.0,10.03,12.25,47.59359,-54.27349
2022-01-25 04:04:00+00:00,57.0,9.01,60.0,10.19,12.25,47.59359,-54.27349
2022-01-25 04:14:00+00:00,34.0,7.04,55.0,9.28,12.17,47.59359,-54.27349
2022-01-25 04:24:00+00:00,26.0,6.56,37.0,7.82,12.17,47.59359,-54.27349
2022-01-25 04:34:00+00:00,3.0,5.95,5.0,7.01,12.17,47.59359,-54.27349
2022-01-25 04:44:00+00:00,315.0,0.01,14.0,0.0,12.17,47.59359,-54.27349
2022-01-25 04:54:00+00:00,315.0,0.01,14.0,0.0,12.17,47.59359,-54.27349
2022-01-25 05:04:00+00:00,315.0,0.01,14.0,0.0,12.17,47.59359,-54.27349
2022-01-25 05:14:00+00:00,315.0,0.01,14.0,0.0,12.17,47.59359,-54.27349
2022-01-25 05:24:00+00:00,315.0,0.01,14.0,0.0,12.17,47.59359,-54.27349
2022-01-25 05:34:00+00:00,315.0,0.01,14.0,0.0,12.17,47.59359,-54.27349
2022-01-25 05:44:00+00:00,315.0,0.01,14.0,0.0,12.17,47.59359,-54.27349
2022-01-25 05:54:00+00:00,315.0,0.01,14.0,0.0,12.17,47.59359,-54.27349
2022-01-25 06:04:00+00:00,315.0,0.01,14.0,0.0,12.17,47.59359,-54.27349
2022-01-25 06:14:01+00:00,315.0,0.01,14.0,0.0,12.17,47.59359,-54.27349
2022-01-25 06:24:01+00:00,315.0,0.01,14.0,0.0,12.17,47.59359,-54.27349
2022-01-25 06:34:01+00:00,315.0,0.01,14.0,0.0,12.17,47.59359,-54.27349
2022-01-25 06:44:01+00:00,315.0,0.01,14.0,0.0,12.17,47.59359,-54.27349
2022-01-25 06:54:01+00:00,315.0,0.01,14.0,0.0,12.17,47.59359,-54.27349
2022-01-25 07:04:01+00:00,315.0,0.01,14.0,0.0,12.17,47.59359,-54.27349
2022-01-25 07:14:00+00:00,315.0,0.01,14.0,0.0,12.25,47.59359,-54.27349
2022-01-25 07:24:00+00:00,315.0,0.01,14.0,0.0,12.25,47.59359,-54.27349
2022-01-25 07:34:00+00:00,315.0,0.01,14.0,0.0,12.25,47.59359,-54.27349
2022-01-25 07:44:00+00:00,315.0,0.01,14.0,0.0,12.25,47.59359,-54.27349
2022-01-25 07:54:00+00:00,315.0,0.01,14.0,0.0,12.25,47.59359,-54.27349
2022-01-25 08:04:00+00:00,315.0,0.01,14.0,0.0,12.25,47.59359,-54.27349
2022-01-25 08:14:01+00:00,315.0,0.01,14.0,0.0,12.17,47.59359,-54.27349
2022-01-25 08:24:01+00:00,315.0,0.01,14.0,0.0,12.17,47.59359,-54.27349
2022-01-25 08:34:01+00:00,315.0,0.01,14.0,0.0,12.17,47.59359,-54.27349
2022-01-25 08:44:01+00:00,315.0,0.01,14.0,0.0,12.17,47.59359,-54.27349
2022-01-25 08:54:01+00:00,315.0,0.01,14.0,0.0,12.17,47.59359,-54.27349
2022-01-25 09:04:01+00:00,315.0,0.01,14.0,0.0,12.17,47.59359,-54.27349
2022-01-25 09:14:00+00:00,315.0,0.01,14.0,0.0,12.17,47.59359,-54.27349
2022-01-25 09:24:00+00:00,315.0,0.01,14.0,0.0,12.17,47.59359,-54.27349
2022-01-25 09:34:00+00:00,290.0,12.34,292.0,12.61,12.17,47.59359,-54.27349
2022-01-25 09:44:00+00:00,286.0,8.47,275.0,12.88,12.17,47.59359,-54.27349
2022-01-25 09:54:00+00:00,285.0,11.55,281.0,14.02,12.17,47.59359,-54.27349
2022-01-25 10:04:00+00:00,287.0,10.35,285.0,14.21,12.17,47.59359,-54.27349
2022-01-25 10:14:00+00:00,296.0,8.81,288.0,13.78,12.17,47.59359,-54.27349
2022-01-25 10:24:00+00:00,306.0,9.46,299.0,14.01,12.17,47.59359,-54.27349
2022-01-25 10:34:00+00:00,306.0,11.14,301.0,13.87,12.17,47.59359,-54.27349
2022-01-25 10:44:00+00:00,292.0,11.94,285.0,13.75,12.17,47.59359,-54.27349
2022-01-25 10:54:00+00:00,296.0,10.05,291.0,12.22,12.17,47.59359,-54.27349
2022-01-25 11:04:00+00:00,311.0,10.2,302.0,12.46,12.17,47.59359,-54.27349
2022-01-25 11:14:00+00:00,302.0,10.3,297.0,12.04,12.09,47.59359,-54.27349
2022-01-25 11:24:00+00:00,324.0,7.57,312.0,10.69,12.09,47.59359,-54.27349
2022-01-25 11:34:00+00:00,329.0,6.72,307.0,10.2,12.09,47.59359,-54.27349
2022-01-25 11:44:00+00:00,302.0,10.74,305.0,11.85,12.09,47.59359,-54.27349
2022-01-25 11:54:00+00:00,323.0,7.5,301.0,10.03,12.09,47.59359,-54.27349
2022-01-25 12:04:00+00:00,322.0,6.28,326.0,7.05,12.09,47.59359,-54.27349
2022-01-25 12:14:00+00:00,318.0,5.66,305.0,10.4,12.17,47.59359,-54.27349
2022-01-25 12:24:00+00:00,324.0,5.04,298.0,10.06,12.17,47.59359,-54.27349
2022-01-25 12:34:00+00:00,320.0,5.41,312.0,6.18,12.17,47.59359,-54.27349
2022-01-25 12:44:00+00:00,327.0,6.47,328.0,7.14,12.17,47.59359,-54.27349
2022-01-25 12:54:00+00:00,334.0,3.57,324.0,5.27,12.17,47.59359,-54.27349
2022-01-25 13:04:00+00:00,319.0,4.29,318.0,5.5,12.17,47.59359,-54.27349
2022-01-25 13:14:00+00:00,329.0,3.39,323.0,4.18,14.32,47.59359,-54.27349
2022-01-25 13:24:00+00:00,310.0,3.64,308.0,4.63,14.32,47.59359,-54.27349
2022-01-25 13:34:00+00:00,287.0,3.75,304.0,4.68,14.32,47.59359,-54.27349
2022-01-25 13:44:00+00:00,281.0,6.92,282.0,8.91,14.32,47.59359,-54.27349
2022-01-25 13:54:00+00:00,280.0,5.19,277.0,7.63,14.32,47.59359,-54.27349
2022-01-25 14:04:00+00:00,311.0,5.26,317.0,5.86,14.32,47.59359,-54.27349
2022-01-25 14:14:01+00:00,299.0,4.85,303.0,5.41,13.6,47.59359,-54.27349
2022-01-25 14:24:01+00:00,319.0,5.48,324.0,6.72,13.6,47.59359,-54.27349
2022-01-25 14:34:01+00:00,283.0,5.48,280.0,8.09,13.6,47.59359,-54.27349
2022-01-25 14:44:01+00:00,292.0,4.94,280.0,7.12,13.6,47.59359,-54.27349
2022-01-25 14:54:01+00:00,286.0,5.6,284.0,6.87,13.6,47.59359,-54.27349
2022-01-25 15:04:01+00:00,299.0,4.48,307.0,4.87,13.6,47.59359,-54.27349
2022-01-25 15:14:00+00:00,271.0,6.6,270.0,7.23,13.76,47.59359,-54.27349
2022-01-25 15:24:00+00:00,292.0,4.69,292.0,5.7,13.76,47.59359,-54.27349
2022-01-25 15:34:00+00:00,299.0,3.63,307.0,3.91,13.76,47.59359,-54.27349
2022-01-25 15:44:00+00:00,298.0,3.7,299.0,4.57,13.76,47.59359,-54.27349
2022-01-25 15:54:00+00:00,281.0,3.95,273.0,4.96,13.76,47.59359,-54.27349
2022-01-25 16:04:00+00:00,257.0,4.88,254.0,5.57,13.76,47.59359,-54.27349
2022-01-25 17:14:00+00:00,289.0,5.03,284.0,7.91,13.92,47.59359,-54.27349
2022-01-25 17:24:00+00:00,276.0,6.66,275.0,9.18,13.92,47.59359,-54.27349
2022-01-25 17:34:00+00:00,283.0,3.36,275.0,4.94,13.92,47.59359,-54.27349
2022-01-25 17:44:00+00:00,275.0,4.57,278.0,8.66,13.92,47.59359,-54.27349
2022-01-25 17:54:00+00:00,272.0,7.46,275.0,9.21,13.92,47.59359,-54.27349
2022-01-25 18:04:00+00:00,272.0,8.95,272.0,9.99,13.92,47.59359,-54.27349
2022-01-25 18:14:00+00:00,276.0,9.78,280.0,10.76,13.76,47.59359,-54.27349
2022-01-25 18:24:00+00:00,277.0,9.78,276.0,10.47,13.76,47.59359,-54.27349
2022-01-25 18:34:00+00:00,279.0,9.65,276.0,10.68,13.76,47.59359,-54.27349
2022-01-25 18:44:00+00:00,273.0,9.52,278.0,10.36,13.76,47.59359,-54.27349
2022-01-25 18:54:00+00:00,278.0,9.26,276.0,10.24,13.76,47.59359,-54.27349
2022-01-25 19:04:00+00:00,263.0,9.7,263.0,10.58,13.76,47.59359,-54.27349
2022-01-25 19:14:01+00:00,259.0,9.51,260.0,10.21,14.08,47.59359,-54.27349
2022-01-25 19:24:01+00:00,261.0,8.0,262.0,9.67,14.08,47.59359,-54.27349
2022-01-25 19:34:01+00:00,252.0,7.53,251.0,9.44,14.08,47.59359,-54.27349
2022-01-25 19:44:01+00:00,266.0,6.97,265.0,9.31,14.08,47.59359,-54.27349
2022-01-25 19:54:01+00:00,248.0,6.54,258.0,9.39,14.08,47.59359,-54.27349
2022-01-25 20:04:01+00:00,257.0,8.89,258.0,9.94,14.08,47.59359,-54.27349
2022-01-25 20:14:01+00:00,254.0,8.62,253.0,10.33,12.97,47.59359,-54.27349
2022-01-25 20:24:01+00:00,260.0,8.04,259.0,9.83,12.97,47.59359,-54.27349
2022-01-25 20:34:01+00:00,259.0,8.32,257.0,9.72,12.97,47.59359,-54.27349
2022-01-25 20:44:01+00:00,256.0,7.26,263.0,9.35,12.97,47.59359,-54.27349
2022-01-25 20:54:01+00:00,260.0,7.53,262.0,10.04,12.97,47.59359,-54.27349
2022-01-25 21:04:01+00:00,252.0,6.27,255.0,7.83,12.97,47.59359,-54.27349
2022-01-25 21:14:00+00:00,259.0,7.21,266.0,10.21,12.65,47.59359,-54.27349
2022-01-25 21:24:00+00:00,255.0,7.0,260.0,9.22,12.65,47.59359,-54.27349
2022-01-25 21:34:00+00:00,240.0,6.61,239.0,7.42,12.65,47.59359,-54.27349
2022-01-25 21:44:00+00:00,242.0,6.26,244.0,8.52,12.65,47.59359,-54.27349
2022-01-25 21:54:00+00:00,237.0,6.06,250.0,8.73,12.65,47.59359,-54.27349
2022-01-25 22:04:00+00:00,247.0,6.23,256.0,9.18,12.65,47.59359,-54.27349
2022-01-25 22:14:01+00:00,240.0,5.6,252.0,9.54,12.57,47.59359,-54.27349
2022-01-25 22:24:01+00:00,240.0,4.96,240.0,6.68,12.57,47.59359,-54.27349
2022-01-25 22:34:01+00:00,234.0,4.51,241.0,5.05,12.57,47.59359,-54.27349
2022-01-25 22:44:01+00:00,230.0,5.08,232.0,5.54,12.57,47.59359,-54.27349
2022-01-25 22:54:01+00:00,231.0,4.01,231.0,4.5,12.57,47.59359,-54.27349
2022-01-25 23:04:01+00:00,227.0,3.55,225.0,4.27,12.57,47.59359,-54.27349
2022-01-25 23:14:01+00:00,210.0,3.37,219.0,4.24,12.57,47.59359,-54.27349
2022-01-25 23:24:01+00:00,215.0,4.61,213.0,5.64,12.57,47.59359,-54.27349
2022-01-25 23:34:01+00:00,184.0,3.16,217.0,4.84,12.57,47.59359,-54.27349
2022-01-25 23:44:01+00:00,172.0,3.45,153.0,4.46,12.57,47.59359,-54.27349
2022-01-25 23:54:01+00:00,186.0,2.65,224.0,4.24,12.57,47.59359,-54.27349
